MLM51 LSZR-EDDP

Flight info

Callsign MLM51
Flight time 0h 47m
Altitude 39000
Route ALAGO Z1 SUDEN Y710 ETAGO N869 ANELA/N0455F380 M726 LASGA/N0461F310 T202 TABAT T952 GOXLI DCT GOT GOT1L
Aircraft A319/M-SDE3FGHIRWY/LB1

Departure

Time 2026-05-06 15:02
Airport Sankt Gallen Altenrhein Airport (LSZR)

Arrival

Time 2026-05-06 15:50
Airport Leipzig/Halle Airport (EDDP)
Time Latitude Longitude Altitude Speed Heading
2026-05-06 14:45 47.48718 9.55298 1315 ft 0 kts
2026-05-06 14:57 47.48725 9.55314 1315 ft 4 kts 68°
2026-05-06 14:57 47.48701 9.55339 1315 ft 7 kts 176°
2026-05-06 14:58 47.48686 9.55338 1315 ft 0 kts 185°
2026-05-06 14:59 47.48682 9.55337 1315 ft 3 kts 185°
2026-05-06 14:59 47.48648 9.55331 1316 ft 6 kts 187°
2026-05-06 14:59 47.48598 9.55328 1317 ft 7 kts 165°
2026-05-06 14:59 47.48575 9.55410 1318 ft 15 kts 99°
2026-05-06 15:00 47.48548 9.55659 1318 ft 29 kts 99°
2026-05-06 15:00 47.48516 9.55961 1318 ft 30 kts 99°
2026-05-06 15:00 47.48484 9.56269 1315 ft 29 kts 99°
2026-05-06 15:00 47.48453 9.56560 1314 ft 28 kts 99°
2026-05-06 15:01 47.48431 9.56768 1314 ft 18 kts 99°
2026-05-06 15:01 47.48412 9.56955 1316 ft 10 kts 98°
2026-05-06 15:01 47.48419 9.57031 1317 ft 8 kts 80°
2026-05-06 15:01 47.48405 9.57027 1317 ft 4 kts 260°
2026-05-06 15:02 47.48412 9.56955 1316 ft 12 kts 277°
2026-05-06 15:02 47.48458 9.56512 1314 ft 87 kts 279°
2026-05-06 15:02 47.48589 9.55279 1554 ft 137 kts 277°
2026-05-06 15:02 47.48774 9.53993 2629 ft 124 kts 289°
2026-05-06 15:03 47.49397 9.53039 3179 ft 155 kts 326°
2026-05-06 15:03 47.50616 9.52802 3638 ft 194 kts
2026-05-06 15:03 47.51948 9.52977 4585 ft 193 kts 356°
2026-05-06 15:03 47.53296 9.53042 5477 ft 195 kts 354°
2026-05-06 15:04 47.54671 9.53096 6275 ft 205 kts 353°
2026-05-06 15:04 47.56183 9.53154 6839 ft 230 kts 355°
2026-05-06 15:04 47.57782 9.53105 7707 ft 239 kts 345°
2026-05-06 15:04 47.59422 9.52606 8840 ft 243 kts 342°
2026-05-06 15:05 47.61141 9.52073 9692 ft 264 kts 343°
2026-05-06 15:05 47.63029 9.51486 10371 ft 288 kts 343°
2026-05-06 15:05 47.65047 9.50866 11104 ft 308 kts 344°
2026-05-06 15:05 47.67231 9.50193 11668 ft 333 kts 345°
2026-05-06 15:06 47.69586 9.49463 12159 ft 358 kts 345°
2026-05-06 15:06 47.72097 9.48685 12746 ft 376 kts 345°
2026-05-06 15:06 47.74697 9.47883 13580 ft 386 kts 346°
2026-05-06 15:06 47.77352 9.47067 14398 ft 393 kts 346°
2026-05-06 15:07 47.80069 9.46370 15238 ft 400 kts 352°
2026-05-06 15:07 47.82869 9.46251 16101 ft 406 kts 359°
2026-05-06 15:07 47.85705 9.46258 16979 ft 410 kts 359°
2026-05-06 15:07 47.88559 9.46258 17763 ft 417 kts 359°
2026-05-06 15:08 47.91601 9.46255 17911 ft 439 kts 359°
2026-05-06 15:08 47.94679 9.46253 18064 ft 456 kts 359°
2026-05-06 15:08 47.97918 9.46250 18433 ft 464 kts 359°
2026-05-06 15:08 48.01158 9.46245 18911 ft 467 kts 359°
2026-05-06 15:09 48.04425 9.46238 19401 ft 470 kts 359°
2026-05-06 15:09 48.07602 9.46230 19858 ft 473 kts 359°
2026-05-06 15:09 48.10900 9.46220 20325 ft 475 kts 359°
2026-05-06 15:09 48.14211 9.46207 20761 ft 478 kts 359°
2026-05-06 15:10 48.17546 9.46195 21172 ft 480 kts 359°
2026-05-06 15:10 48.20898 9.46190 21578 ft 483 kts 359°
2026-05-06 15:10 48.24269 9.46190 21959 ft 486 kts 359°
2026-05-06 15:10 48.27588 9.46195 22357 ft 489 kts 359°
2026-05-06 15:11 48.30999 9.46204 22724 ft 492 kts 359°
2026-05-06 15:11 48.34438 9.46210 23088 ft 495 kts 359°
2026-05-06 15:11 48.37858 9.46211 23431 ft 498 kts 359°
2026-05-06 15:11 48.41362 9.46213 23722 ft 500 kts 359°
2026-05-06 15:12 48.44848 9.46214 24001 ft 503 kts 359°
2026-05-06 15:12 48.48353 9.46213 24274 ft 505 kts 359°
2026-05-06 15:12 48.51874 9.46213 24548 ft 507 kts 359°
2026-05-06 15:12 48.55406 9.46212 24848 ft 510 kts 359°
2026-05-06 15:13 48.58959 9.46192 25124 ft 512 kts 359°
2026-05-06 15:13 48.62490 9.46155 25390 ft 514 kts 358°
2026-05-06 15:13 48.66049 9.46381 25691 ft 517 kts
2026-05-06 15:13 48.69555 9.47577 26158 ft 518 kts 18°
2026-05-06 15:14 48.72859 9.49715 26607 ft 517 kts 29°
2026-05-06 15:14 48.75848 9.52719 27066 ft 515 kts 40°
2026-05-06 15:14 48.78413 9.56473 27500 ft 512 kts 51°
2026-05-06 15:14 48.80674 9.60642 27971 ft 511 kts 53°
2026-05-06 15:15 48.82919 9.64825 28435 ft 511 kts 53°
2026-05-06 15:15 48.84737 9.68218 28809 ft 511 kts 53°
2026-05-06 15:15 48.86977 9.72403 29275 ft 511 kts 53°
2026-05-06 15:15 48.89150 9.76463 29759 ft 511 kts 53°
2026-05-06 15:16 48.91364 9.80599 30194 ft 511 kts 53°
2026-05-06 15:16 48.93637 9.84845 30592 ft 512 kts 53°
2026-05-06 15:16 48.95123 9.87627 30840 ft 512 kts 53°
2026-05-06 15:16 48.97369 9.91840 31210 ft 514 kts 53°
2026-05-06 15:17 48.99628 9.96084 31578 ft 516 kts 53°
2026-05-06 15:17 49.01887 10.00336 31958 ft 517 kts 53°
2026-05-06 15:17 49.04148 10.04604 32336 ft 519 kts 53°
2026-05-06 15:17 49.06418 10.08899 32741 ft 521 kts 53°
2026-05-06 15:18 49.08693 10.13204 33145 ft 522 kts 52°
2026-05-06 15:18 49.10975 10.17529 33579 ft 524 kts 52°
2026-05-06 15:18 49.13260 10.21869 33984 ft 526 kts 52°
2026-05-06 15:18 49.15639 10.25940 34414 ft 526 kts 46°
2026-05-06 15:19 49.18201 10.29913 34931 ft 524 kts 46°
2026-05-06 15:19 49.20756 10.33873 35473 ft 521 kts 46°
2026-05-06 15:19 49.23294 10.37810 36011 ft 519 kts 46°
2026-05-06 15:19 49.25828 10.41729 36510 ft 517 kts 46°
2026-05-06 15:20 49.28362 10.45612 37046 ft 515 kts 46°
2026-05-06 15:20 49.30925 10.49523 37576 ft 512 kts 46°
2026-05-06 15:20 49.33448 10.53367 38093 ft 511 kts 46°
2026-05-06 15:20 49.35959 10.57214 38560 ft 509 kts 46°
2026-05-06 15:21 49.38435 10.61112 38746 ft 509 kts 47°
2026-05-06 15:21 49.43288 10.69011 38802 ft 508 kts 48°
2026-05-06 15:22 49.48180 10.76860 38796 ft 509 kts 47°
2026-05-06 15:22 49.53142 10.84641 38784 ft 510 kts 46°
2026-05-06 15:23 49.58102 10.92445 38783 ft 510 kts 46°
2026-05-06 15:23 49.63043 11.00288 38780 ft 510 kts 47°
2026-05-06 15:24 49.67967 11.08175 38787 ft 510 kts 47°
2026-05-06 15:24 49.73062 11.15804 38793 ft 511 kts 37°
2026-05-06 15:24 49.76058 11.18757 38794 ft 511 kts 26°
2026-05-06 15:25 49.79321 11.20889 38798 ft 508 kts 16°
2026-05-06 15:25 49.82748 11.22146 38798 ft 505 kts
2026-05-06 15:25 49.86237 11.22514 38801 ft 501 kts 357°
2026-05-06 15:26 49.93204 11.22555 38806 ft 501 kts 357°
2026-05-06 15:26 50.00168 11.22596 38814 ft 500 kts 357°
2026-05-06 15:27 50.07127 11.22626 38810 ft 499 kts 358°
2026-05-06 15:27 50.14056 11.22663 38803 ft 497 kts 358°
2026-05-06 15:28 50.21011 11.22707 38802 ft 496 kts 358°
2026-05-06 15:28 50.27895 11.22758 38637 ft 490 kts 358°
2026-05-06 15:28 50.31282 11.23211 38141 ft 489 kts
2026-05-06 15:29 50.34559 11.24601 38278 ft 490 kts 19°
2026-05-06 15:29 50.37693 11.26763 38071 ft 495 kts 27°
2026-05-06 15:29 50.40600 11.29742 36865 ft 505 kts 40°
2026-05-06 15:29 50.43124 11.33557 36150 ft 502 kts 46°
2026-05-06 15:30 50.45585 11.37434 35304 ft 502 kts 45°
2026-05-06 15:30 50.48076 11.41293 34350 ft 505 kts 44°
2026-05-06 15:30 50.50628 11.45114 33319 ft 509 kts 40°
2026-05-06 15:30 50.53469 11.48419 32879 ft 509 kts 31°
2026-05-06 15:31 50.56570 11.51091 32605 ft 509 kts 22°
2026-05-06 15:31 50.59909 11.52889 32340 ft 506 kts 10°
2026-05-06 15:31 50.63388 11.53571 32078 ft 502 kts 359°
2026-05-06 15:32 50.70367 11.53870 31553 ft 504 kts 358°
2026-05-06 15:32 50.73890 11.54012 31312 ft 507 kts 359°
2026-05-06 15:32 50.80966 11.54326 31242 ft 510 kts 359°
2026-05-06 15:33 50.88056 11.54675 31210 ft 510 kts 359°
2026-05-06 15:33 50.95151 11.55051 31231 ft 510 kts 359°
2026-05-06 15:34 51.02212 11.56019 31245 ft 514 kts 13°
2026-05-06 15:34 51.05531 11.57940 31228 ft 516 kts 25°
2026-05-06 15:34 51.08572 11.60939 31217 ft 515 kts 38°
2026-05-06 15:35 51.11152 11.64884 31218 ft 513 kts 51°
2026-05-06 15:35 51.13156 11.69557 31008 ft 509 kts 64°
2026-05-06 15:35 51.14488 11.74670 30364 ft 493 kts 77°
2026-05-06 15:35 51.15398 11.79960 29532 ft 485 kts 78°
2026-05-06 15:36 51.16268 11.85105 28618 ft 478 kts 78°
2026-05-06 15:36 51.17128 11.90202 27298 ft 478 kts 78°
2026-05-06 15:36 51.17988 11.95316 26133 ft 477 kts 77°
2026-05-06 15:36 51.18844 12.00393 25148 ft 471 kts 77°
2026-05-06 15:37 51.19694 12.05441 23706 ft 474 kts 76°
2026-05-06 15:37 51.20553 12.10557 21967 ft 481 kts 76°
2026-05-06 15:37 51.21419 12.15715 20543 ft 481 kts 76°
2026-05-06 15:37 51.22278 12.20835 19326 ft 471 kts 77°
2026-05-06 15:38 51.23114 12.25817 17722 ft 460 kts 77°
2026-05-06 15:38 51.23933 12.30701 16064 ft 451 kts 77°
2026-05-06 15:38 51.24727 12.35483 14553 ft 441 kts 77°
2026-05-06 15:38 51.25500 12.40165 13079 ft 432 kts 77°
2026-05-06 15:39 51.26256 12.44753 11597 ft 423 kts 77°
2026-05-06 15:39 51.26998 12.49256 10420 ft 417 kts 76°
2026-05-06 15:39 51.27734 12.53744 10078 ft 419 kts 77°
2026-05-06 15:39 51.28443 12.58068 9880 ft 384 kts 77°
2026-05-06 15:40 51.29101 12.62063 9770 ft 367 kts 77°
2026-05-06 15:40 51.29728 12.65891 9641 ft 346 kts 77°
2026-05-06 15:40 51.30319 12.69517 9508 ft 329 kts 77°
2026-05-06 15:40 51.30879 12.72972 9375 ft 314 kts 77°
2026-05-06 15:41 51.31413 12.76282 9213 ft 302 kts 77°
2026-05-06 15:41 51.31933 12.79519 8790 ft 300 kts 77°
2026-05-06 15:41 51.32471 12.82728 8346 ft 298 kts 73°
2026-05-06 15:41 51.33595 12.85469 7924 ft 297 kts 40°
2026-05-06 15:42 51.35424 12.86818 7518 ft 289 kts
2026-05-06 15:42 51.37350 12.86378 7188 ft 276 kts 333°
2026-05-06 15:42 51.38933 12.84847 7045 ft 259 kts 315°
2026-05-06 15:42 51.40058 12.82604 6516 ft 257 kts 292°
2026-05-06 15:43 51.40683 12.80034 6291 ft 247 kts 288°
2026-05-06 15:43 51.41291 12.77490 5912 ft 244 kts 288°
2026-05-06 15:43 51.41919 12.74886 5317 ft 250 kts 289°
2026-05-06 15:43 51.42540 12.72324 5068 ft 243 kts 289°
2026-05-06 15:44 51.43103 12.69782 5002 ft 241 kts 281°
2026-05-06 15:44 51.43254 12.67132 5007 ft 239 kts 266°
2026-05-06 15:44 51.43143 12.64479 5007 ft 236 kts 264°
2026-05-06 15:44 51.43019 12.61934 4882 ft 225 kts 264°
2026-05-06 15:45 51.42909 12.59463 4628 ft 220 kts 265°
2026-05-06 15:45 51.42804 12.57032 4344 ft 218 kts 264°
2026-05-06 15:45 51.42699 12.54616 4048 ft 217 kts 265°
2026-05-06 15:45 51.42594 12.52218 3763 ft 215 kts 265°
2026-05-06 15:46 51.42490 12.49833 3474 ft 213 kts 265°
2026-05-06 15:46 51.42385 12.47465 3192 ft 213 kts 265°
2026-05-06 15:46 51.42281 12.45099 2909 ft 213 kts 265°
2026-05-06 15:46 51.42177 12.42765 2627 ft 205 kts 266°
2026-05-06 15:47 51.42078 12.40554 2363 ft 195 kts 266°
2026-05-06 15:47 51.41983 12.38447 2099 ft 182 kts 266°
2026-05-06 15:47 51.41899 12.36583 1880 ft 154 kts 266°
2026-05-06 15:47 51.41826 12.34962 1692 ft 144 kts 267°
2026-05-06 15:48 51.41754 12.33377 1494 ft 139 kts 267°
2026-05-06 15:48 51.41686 12.31879 1310 ft 131 kts 267°
2026-05-06 15:48 51.41620 12.30419 1120 ft 131 kts 269°
2026-05-06 15:48 51.41554 12.28974 944 ft 130 kts 270°
2026-05-06 15:49 51.41488 12.27534 746 ft 130 kts 270°
2026-05-06 15:49 51.41422 12.26094 572 ft 130 kts 269°
2026-05-06 15:49 51.41358 12.24697 479 ft 117 kts 266°
2026-05-06 15:49 51.41313 12.23664 476 ft 58 kts 265°
2026-05-06 15:50 51.41299 12.23320 475 ft 12 kts 279°
2026-05-06 15:50 51.41364 12.23253 476 ft 13 kts 357°
2026-05-06 15:50 51.41434 12.23243 473 ft 17 kts 355°
2026-05-06 15:50 51.41561 12.23229 471 ft 14 kts 356°
2026-05-06 15:51 51.41617 12.23127 469 ft 16 kts 286°
2026-05-06 15:51 51.41654 12.22917 461 ft 24 kts 286°
2026-05-06 15:51 51.41706 12.22617 447 ft 32 kts 285°
2026-05-06 15:51 51.41766 12.22273 432 ft 26 kts 284°
2026-05-06 15:52 51.41809 12.22018 423 ft 23 kts 285°
2026-05-06 15:52 51.41847 12.21792 436 ft 20 kts 285°
2026-05-06 15:52 51.41884 12.21660 432 ft 9 kts 353°
2026-05-06 15:52 51.41943 12.21685 437 ft 6 kts 15°
2026-05-06 15:53 51.41961 12.21693 431 ft 0 kts 15°